{"data":{"norad_id":62904,"intl_designator":"2025-026C","name":"COSMOS 2583","alt_names":[],"object_type":"PAYLOAD","status":"ACTIVE","operator":null,"country":"CIS","launch_date":"2025-02-05","launch_site_code":"PLMSC","launch_vehicle":null,"mission":null,"orbit_class":"UNKNOWN","rcs_meters":null,"size_class":null,"mass_kg":null,"dimensions":null,"purposes":[],"wikipedia_slug":null,"has_3d_model":false,"image_url":null,"decayed_at":null,"tle_current":{"epoch":"2026-05-24T17:29:19.809600Z","epoch_age_seconds":95736,"freshness":"FRESH","line1":"1 62904U 25026C   26144.72870150  .00001476  00000+0  13302-3 0  9992","line2":"2 62904  81.9948  98.4315 0011200 127.7399 232.4838 14.94918690 70697","mean_motion":14.9491869,"eccentricity":0.00112,"inclination_deg":81.9948,"raan_deg":98.4315,"arg_perigee_deg":127.7399,"mean_anomaly_deg":232.4838,"bstar":0.00013302,"rev_number":7069,"period_min":96.326309225554,"perigee_km":574.82908753553,"apogee_km":590.42119473167,"semimajor_km":6960.7621411336,"source":"CELESTRAK","updated_at":"2026-05-25T13:38:03.355451Z"}}}